Погода в Туркестане

Погода в Туркестане : погода сейчас, прогноз погоды и архив. Всё, что Вы хотите узнать о погоде в Туркестане!

Хотите узнать прогноз погоды в Туркестане? Тогда Вам сюда: Погода в Туркестане

Поиск расширенной информации на нашем сайте:

Полезная информация:

Другие новости

Новости СМИ2

Главная страница сайта

Новости сайта

03.07.2017

Напоминаем, что на нашем специализированном сайте Метеоцентр.Азия вы можете получить высокодетализированные автоматические прогнозы погоды по пунктам России, СНГ и мира в авиационном формате (включающие направление и скорость ветра, видимость, явления погоды, количество и форму облачности, нижнюю и верхнюю границу облачности).

Рекомендуем:

Погода в Туркестане - сегодня

Время (UTC), дата Ветер
(°,м/с) 
Видим.   Явления Облачность Т
(°С)
Тd
(°С)
f(%) Тe
(°С)
Pmin
(гПа)
dP
(гПа)
Po
(мм)
O2
(г/м3)
Тmin Tmax R s Состояние
почвы
09 15.09.19 180 (Ю) 20000 м  {ливн. осадки}  9/8 600 м кучево-дожд., средняя 
[Cb cap|Ac As]
+22.9 +1.9 25 +23  1016.4  -0.6  745  276           
12 15.09.19 320 (СЗ) 20000 м  в посл. час ливневой дождь  9/8 600 м кучево-дожд., средняя 
[Cb cap|Ac As]
+22.4 +4.6 31 +22  1016.3  -0.1  744  277           
15 15.09.19 180 (Ю) н/о    6/4 600 м кучево-дожд., средняя 
[Cb cap|Ac As]
+18.2 +4.4 40 +20  1017.9  1.2  745  281    +25.3  0.0     
18 15.09.19 130 (ЮВ) н/о    4/0 средняя 
[Ac As]
+15.2 +4.8 50 +17  1018.4  0.3  746  284    +25.3  0.0     
21 15.09.19 070 (В) н/о    ясно 
+13.1 +4.9 57 +14  1018.5  -0.2  745  286           
00 16.09.19 070 (В) н/о    ясно 
+12.9 +6.2 64 +14  1019.4  746  286           
03 16.09.19 100 (В) 20000 м    ясно 
+15.1 +6.2 55 +16  1019.7  0.4  746  284           
06 16.09.19 170 (Ю) 20000 м    6/3 1000 м средняя, верхняя 
[Cu med, cong|Ac lent|Ci sp]
+23.4 +4.8 30 +23  1019.3  0.3  747  276  +8.6         
09 16.09.19 290 (З) 20000 м    10/5 600 м кучево-дожд., средняя, верхняя 
[Cb cap|Ac As|Cs]
+26.5 +0.9 19 +27  1017.3  -1.7  745  274           
12 16.09.19 310 (СЗ) 20000 м    9/6 600 м кучево-дожд., средняя, верхняя 
[Cb cap|Ac As|Cs]
+26.6 -1 16 +27  1017.1  -0.2  745  274           
15 16.09.19 310 (СЗ) н/о    3/0 средняя 
[Ac lent]
+20.4 +2.8 31 +20  1018.4  0.7  746  279    +27.4       
18 16.09.19 020 (С) н/о    ясно 
+17.4 +2.2 36 +19  1019.4  0.8  746  282    +27.4       
21 16.09.19 080 (В) н/о    ясно 
+12.6 +1.7 47 +14  1020  0.2  747  287           
00 17.09.19 100 (В) н/о    ясно 
+13.4 +1 43 +14  1020.7  0.7  747  287           
03 17.09.19 100 (В) 20000 м    ясно 
+18.1 +2.4 35 +19  1021.3  748  282           
06 17.09.19 080 (В) 20000 м    ясно 
+25.7 +2.5 22 +26  1021.1  0.4  748  275  +11.5         
09 17.09.19 290 (З) 20000 м    ясно 
+28.3 -1.7 14 +28  1019.1  -1.7  747  273           
12 17.09.19 150 (ЮВ) 20000 м    ясно 
+27.6 -2.1 14 +28  1017.7  -1.4  746  273           
15 17.09.19 тихо ()   н/о    ясно 
+21 +2.5 29 +21  1017.5  -0.8  745  278    +28.7       
18 17.09.19 020 (С) н/о    ясно 
+18.1 +1.5 33 +19  1017.2  -0.5  745  281    +28.7       
21 17.09.19 050 (СВ) н/о    ясно 
+16.8 +0.2 32 +18  1015.7  -1.5  744  282           
00 18.09.19 050 (СВ) н/о    ясно 
+16 +0.2 34 +16  1014.6  -1.2  743  283           
03 18.09.19 тихо ()   20000 м    ясно 
+18.3 +2.5 35 +18  1014.6  0.1  743  280           
06 18.09.19 170 (Ю) 20000 м    ясно 
+27.2 +1.7 19 +27  1013.3  -0.5  743  272  +14.4         
09 18.09.19 190 (Ю) 20000 м    ясно 
+30.8 -2.8 11 +31  1011.2  -1.8  741  269           
Время (UTC), дата Ветер
(°,м/с) 
Видим.   Явления Облачность Т
(°С)
Тd
(°С)
f(%) Тe
(°С)
Pmin
(гПа)
dP
(гПа)
Po
(мм)
O2
(г/м3)
Тmin Tmax R s Состояние
почвы

Для получения пояснительной информации подведите курсор к названию столбца.

ПОГОДА в Туркестане - архив

Всё, что Вы хотите узнать о погоде в Туркестане - удобно и подробно!

Выберите нужную дату (начиная с 1 января 2018* года) и нажмите кнопку "Найти".
Будут отображены архивные сводки погоды по пункту Туркестан, начиная с указанной даты.


Отображать данные в формате CSV (для использования в таблицах Excel)


Внимание! Наш архив погоды предназначен исключительно для личного некоммерческого использования в познавательных целях. Если Вам необходимы официальные справки о состоянии погоды (для производственных, юридических, коммерческих и т.п. целей), обращайтесь в органы Росгидромета.

*Примечание: данная дата относится к архиву по метеостанциям СССР (Россия, СНГ, Балтия).
Архив по метеостанциям Зарубежной Европы и Азии (кроме Китая) хранится 10 дней, по другим регионам земного шара (Китай, Африка, Америка, Австралия, Океания) - 1 день.

Туркестан - район местоположения метеостанции


Название, широта, долгота, высота метеостанции:
Туркестан 43.3°ш. 68.2°д. 207 м над ур. моря [Казахстан]

Дополнительная информация

В oтличие oт бoльшинства пoгoдных сайтoв мы публикуем пoдрoбную метеoинфoрмацию в детальнoм прoфессиoнальнoм фoрмате.

Характеристики температуры и влажнoсти вoздуха измеряются на высoте 2 м в тени вдали oт зданий и деревьев.
Скoрoсть ветра измеряется на высoте 10 м (на урoвне рoста челoвека скoрoсть ветра ниже в 1.5-2 раза). Если метеoстанция нахoдится в гoрoде или в лесу, тo скoрoсть ветра занижена на 2-4 м/с пo сравнению с oткрытым местoм. Скoрoсть ветра над акватoриями крупных рек и oзёр, а также на вершинах хoлмoв на 2-5 м/с выше, чем в oбычных услoвиях.
Атмoсфернoе давление в разных тoчках местнoсти мoжет значительнo oтличаться oт давления на метеoстанции, в зависимoсти oт услoвий рельефа (при пoдъёме на 10 м давление пoнижается примернo на 1 мм рт.ст.).